[[{"header":{"parameterUnit":"m.s-1","parameterCategory":1,"la1":30.2991,"la2":30.254,"lo1":-89.0895,"lo2":-89.0444,"dy":0.0017,"dx":0.0017,"nx":28,"ny":28,"refTime":"2025-04-24T21:00:00:Z","depth":0,"parameterNumber":2,"parameterNumberName":"U-component_of_WINDS"},"data":[0,0,0,0,0,0,0,0,0,0,0,0,0,0,0,0,0,0,0,0,0,0,0,0,0,0,0,0,0,0,0,0,0,0,0,0,0,0,0,0,0,0,0,0,0,0,0,0,0,0,0,0,0,0,0,0,0,0,-2.4588,-2.4589,0,-2.468,-2.4681,-2.4682,-2.4682,-2.468,-2.4679,-2.4678,-2.4774,-2.4777,-2.4781,0,0,0,0,0,0,0,0,0,0,0,0,0,-2.4417,-2.442,-2.4588,-2.4589,-2.459,-2.4679,-2.4681,-2.4682,-2.4682,-2.468,-2.4679,-2.4678,-2.4772,-2.4777,-2.4781,0,0,0,0,0,0,0,0,0,0,0,0,0,-2.4498,-2.4421,-2.4588,-2.4601,-2.4603,-2.4679,-2.4681,-2.4682,-2.4682,-2.468,-2.4679,-2.4677,-2.4771,-2.4776,-2.4782,-2.4851,0,0,-2.4798,-2.4801,0,0,0,0,0,0,0,0,-2.4493,-2.4504,-2.4598,-2.46,-2.4603,-2.4667,-2.4655,-2.4739,-2.4683,-2.4652,-2.4678,-2.4676,-2.474,-2.4748,-2.4769,-2.4856,-2.486,-2.4799,-2.4802,-2.4805,-2.4806,0,0,0,0,0,0,0,-2.4488,-2.45,-2.4624,-2.4599,-2.4602,-2.4603,-2.4613,-2.4671,-2.4705,-2.4655,-2.4655,-2.4666,-2.4741,-2.4764,-2.4771,-2.4861,-2.4799,-2.4804,-2.4807,-2.4809,-2.5011,-2.5013,0,0,0,0,0,0,-2.4479,-2.4496,-2.4621,-2.4627,-2.4542,-2.4608,-2.4619,-2.4648,-2.4704,-2.4711,-2.4667,-2.4665,-2.4755,-2.4765,-2.4774,-2.486,-2.4805,-2.481,-2.4813,-2.5009,-2.5012,-2.5014,0,0,0,0,0,0,-2.4475,-2.449,-2.4618,-2.4561,-2.4578,-2.4613,-2.4646,-2.4651,-2.4674,-2.4714,-2.472,-2.4684,-2.4754,-2.4767,-2.4832,-2.4863,-2.4812,-2.4817,-2.5007,-2.501,-2.5013,-2.5031,0,0,0,0,0,0,-2.447,-2.4489,-2.4515,-2.4562,-2.4581,-2.4673,-2.4648,-2.4654,-2.4683,-2.4682,-2.4731,-2.4738,-2.4754,-2.4824,-2.4838,-2.487,-2.4821,-2.5004,-2.5008,-2.5012,-2.5028,-2.5034,-2.504,0,0,0,0,0,-2.4464,-2.4517,-2.4516,-2.4531,-2.4614,-2.4675,-2.4686,-2.4702,-2.4686,-2.4712,-2.4738,-2.4736,-2.4858,-2.4831,-2.4846,-2.488,-2.5002,-2.5007,-2.5011,-2.5025,-2.5033,-2.504,0,0,0,0,0,0,-2.4473,-2.4523,-2.4523,-2.4592,-2.4629,-2.4675,-2.4709,-2.471,-2.4754,-2.475,-2.477,-2.4782,-2.4847,-2.487,-2.4839,-2.4951,-2.4928,-2.4936,-2.4933,-2.4941,-2.4947,-2.494,-2.4826,0,0,0,0,0,-2.4482,-2.4527,-2.4569,-2.4626,-2.4645,-2.4674,-2.4701,-2.4711,-2.475,-2.4766,-2.4797,-2.4836,-2.4883,-2.4913,-2.4959,-2.5032,-2.5043,-2.5063,-2.5069,-2.5074,-2.508,-2.5121,-2.513,-2.5029,-2.5029,-2.5029,0,0,-2.4503,-2.4536,-2.4563,-2.4629,-2.4658,-2.4705,-2.4687,-2.4737,-2.4772,-2.4774,-2.4837,-2.4861,-2.4907,-2.4976,-2.5008,-2.4997,-2.5111,-2.508,-2.5083,-2.5087,-2.5127,-2.5136,-2.5145,-2.5032,-2.5032,-2.5031,0,0,-2.4565,-2.4594,-2.4645,-2.4675,-2.4721,-2.474,-2.4752,-2.4798,-2.4814,-2.4878,-2.4881,-2.4924,-2.5004,-2.5036,-2.5063,-2.5138,-2.5138,-2.5153,-2.5184,-2.5224,-2.5232,-2.5239,-2.5266,-2.5275,-2.5159,-2.5159,-2.516,0,-2.4585,-2.4654,-2.4671,-2.4721,-2.475,-2.4754,-2.4806,-2.4835,-2.4894,-2.4914,-2.4901,-2.5003,-2.5034,-2.5111,-2.513,-2.5151,-2.5166,-2.5147,-2.5229,-2.5237,-2.5243,-2.5269,-2.5279,-2.5161,-2.5161,-2.5161,-2.516,0,-2.4677,-2.4725,-2.4761,-2.4817,-2.485,-2.4901,-2.4926,-2.4958,-2.4966,-2.4986,-2.5052,-2.5089,-2.5143,-2.5162,-2.517,-2.5241,-2.5233,-2.5225,-2.5202,-2.5254,-2.5279,-2.5289,-2.5163,-2.5162,-2.5162,-2.5162,0,0,-2.4745,-2.481,-2.4823,-2.4848,-2.4899,-2.4937,-2.4989,-2.5041,-2.5068,-2.5109,-2.5153,-2.5222,-2.5214,-2.5245,-2.5257,-2.5292,-2.5349,-2.5279,-2.5281,-2.5291,-2.543,-2.5435,-2.5446,-2.535,-2.5352,-2.5353,-2.5426,0,-2.4812,-2.4902,-2.492,-2.4999,-2.5044,-2.5049,-2.5095,-2.5132,-2.5153,-2.5195,-2.5219,-2.5268,-2.5255,-2.5273,-2.5308,-2.5335,-2.5377,-2.533,-2.5392,-2.5394,-2.5379,-2.5459,-2.5465,-2.5532,-2.5436,-2.5437,-2.5439,0,-2.4901,-2.4943,-2.5027,-2.5072,-2.5092,-2.5132,-2.5181,-2.5222,-2.5264,-2.5277,-2.5312,-2.532,-2.5375,-2.5351,-2.5427,-2.5395,-2.5421,-2.5439,-2.5442,-2.5447,-2.5418,-2.5467,-2.5553,-2.5563,-2.5454,-2.5453,-2.5452,0,-2.4942,-2.502,-2.508,-2.5102,-2.5157,-2.5185,-2.5209,-2.525,-2.528,-2.5324,-2.5344,-2.5393,-2.5421,-2.546,-2.5481,-2.5461,-2.5557,-2.5534,-2.557,-2.5569,-2.5588,-2.5587,-2.568,-2.5607,-2.5607,-2.5606,-2.5606,0,-2.5014,-2.5065,-2.5099,-2.5136,-2.5194,-2.5214,-2.5271,-2.5295,-2.5331,-2.5374,-2.5382,-2.5422,-2.5449,-2.5493,-2.5511,-2.5572,-2.5584,-2.5597,-2.5601,-2.5596,-2.5594,-2.5613,-2.5609,-2.5609,-2.5609,-2.5608,-2.5608,0,-2.5069,-2.5094,-2.516,-2.5206,-2.5219,-2.526,-2.53,-2.5337,-2.5359,-2.5413,-2.5427,-2.5461,-2.5514,-2.554,-2.5605,-2.5617,-2.5686,-2.5688,-2.5671,-2.5673,-2.5707,-2.5703,-2.5815,-2.5831,-2.5748,-2.5748,-2.5749,0,-2.5113,-2.5152,-2.5203,-2.5232,-2.5256,-2.5303,-2.5334,-2.5356,-2.5388,-2.544,-2.547,-2.5523,-2.5566,-2.565,-2.5682,-2.5732,-2.5735,-2.577,-2.5742,-2.5736,-2.5735,-2.5732,-2.5736,-2.5775,-2.5776,-2.5776,-2.5777,0,-2.5188,-2.5199,-2.5242,-2.5291,-2.5327,-2.5367,-2.5406,-2.5429,-2.5458,-2.5494,-2.5547,-2.558,-2.5647,-2.57,-2.5753,-2.5779,-2.5783,-2.5786,-2.5797,-2.5791,-2.578,-2.5786,-2.5684,-2.5783,-2.5782,-2.5782,-2.5781,-2.5781,-2.5239,-2.5274,-2.5315,-2.5364,-2.5396,-2.5432,-2.5469,-2.5495,-2.554,-2.5595,-2.5606,-2.5663,-2.5706,-2.5777,-2.5805,-2.5851,-2.5843,-2.5859,-2.5863,-2.5866,-2.5868,-2.5774,-2.5861,-2.586,-2.586,-2.586,-2.586,0,-2.5315,-2.5342,-2.5386,-2.544,-2.5479,-2.5479,-2.5522,-2.5555,-2.5604,-2.5643,-2.5686,-2.5748,-2.5799,-2.5835,-2.5887,-2.5917,-2.592,-2.593,-2.5928,-2.5934,-2.5872,-2.5857,-2.5926,-2.5926,-2.5926,-2.5926,-2.5926,-2.5926,-2.5358,-2.5418,-2.5434,-2.5509,-2.5537,-2.5591,-2.5616,-2.565,-2.5681,-2.575,-2.5792,-2.5815,-2.5853,-2.5909,-2.5956,-2.5966,-2.5985,-2.5994,-2.6004,-2.5945,-2.5938,-2.5931,-2.5917,-2.5998,-2.5998,-2.6062,-2.6062,-2.6063]},{"header":{"parameterUnit":"m.s-1","parameterCategory":1,"la1":30.2991,"la2":30.254,"lo1":-89.0895,"lo2":-89.0444,"dy":0.0017,"dx":0.0017,"nx":28,"ny":28,"refTime":"2025-04-24T21:00:00:Z","depth":0,"parameterNumber":3,"parameterNumberName":"V-component_of_WINDS"},"data":[0,0,0,0,0,0,0,0,0,0,0,0,0,0,0,0,0,0,0,0,0,0,0,0,0,0,0,0,0,0,0,0,0,0,0,0,0,0,0,0,0,0,0,0,0,0,0,0,0,0,0,0,0,0,0,0,0,0,3.0724,3.0724,0,3.0731,3.0731,3.0731,3.0689,3.0688,3.0687,3.0686,3.0691,3.0693,3.0694,0,0,0,0,0,0,0,0,0,0,0,0,0,3.0675,3.0676,3.0724,3.0724,3.0725,3.0731,3.0731,3.0731,3.069,3.0688,3.0687,3.0686,3.0691,3.0692,3.0694,0,0,0,0,0,0,0,0,0,0,0,0,0,3.069,3.0676,3.0724,3.0705,3.0703,3.0731,3.0731,3.0731,3.069,3.0688,3.0686,3.0685,3.0691,3.0692,3.0694,3.0741,0,0,3.07,3.0701,0,0,0,0,0,0,0,0,3.069,3.0692,3.0707,3.0706,3.0704,3.0708,3.0715,3.0734,3.069,3.0695,3.0686,3.0684,3.0698,3.0699,3.0704,3.0741,3.0741,3.07,3.0701,3.0702,3.0702,0,0,0,0,0,0,0,3.0689,3.0692,3.0727,3.0708,3.0706,3.0695,3.0695,3.0719,3.0706,3.0694,3.0691,3.0693,3.0697,3.0703,3.0704,3.0741,3.07,3.0702,3.0703,3.0703,3.0817,3.0819,0,0,0,0,0,0,3.069,3.0691,3.0727,3.0727,3.0693,3.0698,3.0698,3.0708,3.0706,3.0704,3.0694,3.0691,3.07,3.0702,3.0704,3.0759,3.0702,3.0704,3.0705,3.0815,3.0817,3.082,0,0,0,0,0,0,3.0689,3.0694,3.0726,3.0708,3.0712,3.07,3.0712,3.0709,3.0715,3.0706,3.0703,3.0703,3.0699,3.0702,3.0732,3.0758,3.0704,3.0706,3.0813,3.0816,3.0819,3.0868,0,0,0,0,0,0,3.0688,3.0694,3.0712,3.0709,3.0713,3.0755,3.0714,3.0711,3.0718,3.0714,3.0713,3.0711,3.0698,3.073,3.0734,3.076,3.0708,3.0811,3.0814,3.0818,3.0864,3.0873,3.088,0,0,0,0,0,3.0687,3.0725,3.0713,3.0717,3.0735,3.0756,3.0758,3.0743,3.0721,3.0738,3.0733,3.0711,3.0755,3.0733,3.0738,3.0765,3.0809,3.0813,3.0817,3.0861,3.0871,3.0879,0,0,0,0,0,0,3.073,3.0724,3.0711,3.0749,3.0754,3.0749,3.0771,3.0754,3.0764,3.076,3.0739,3.074,3.0774,3.0772,3.0748,3.081,3.0778,3.0783,3.0809,3.0819,3.0826,3.0826,3.0709,0,0,0,0,0,3.0744,3.0763,3.0756,3.0791,3.0794,3.0783,3.0791,3.0779,3.0782,3.0784,3.078,3.0784,3.0799,3.0809,3.0822,3.0864,3.0863,3.0885,3.0892,3.0899,3.0904,3.0926,3.0936,3.0834,3.0834,3.0834,0,0,3.0774,3.0773,3.0785,3.08,3.0802,3.0821,3.0784,3.0806,3.082,3.0787,3.0816,3.0814,3.0816,3.0853,3.0869,3.0853,3.0932,3.0904,3.0909,3.0911,3.0931,3.0941,3.095,3.0837,3.0836,3.0836,0,0,3.0837,3.0838,3.0868,3.0871,3.0874,3.0866,3.0874,3.0872,3.0869,3.0898,3.0874,3.089,3.0916,3.0919,3.0924,3.099,3.097,3.0994,3.1034,3.1056,3.1064,3.1071,3.1095,3.1103,3.0999,3.0999,3.0999,0,3.0873,3.0901,3.0885,3.0908,3.0915,3.0887,3.0917,3.092,3.0928,3.0933,3.0915,3.0947,3.0947,3.0985,3.1001,3.1006,3.1013,3.0994,3.1065,3.1072,3.1078,3.11,3.1109,3.1002,3.1002,3.1002,3.1001,0,3.0945,3.0965,3.0988,3.0997,3.1007,3.1033,3.1021,3.1033,3.102,3.1014,3.1044,3.1043,3.1055,3.1063,3.1051,3.1099,3.1089,3.1068,3.1036,3.1091,3.1111,3.1119,3.1006,3.1005,3.1005,3.1004,0,0,3.1035,3.1035,3.1044,3.1048,3.105,3.1065,3.1091,3.1104,3.1114,3.1121,3.1141,3.1164,3.1145,3.1151,3.1138,3.1158,3.121,3.1135,3.1134,3.1149,3.1263,3.1279,3.1289,3.1197,3.1199,3.12,3.1263,0,3.1097,3.1141,3.1127,3.1171,3.1189,3.1163,3.1185,3.1189,3.1184,3.1199,3.1193,3.121,3.1184,3.1187,3.1205,3.12,3.1233,3.1195,3.1216,3.1217,3.1216,3.1299,3.1316,3.1375,3.1271,3.1272,3.1273,0,3.1175,3.1185,3.1231,3.1231,3.1238,3.1258,3.1269,3.1284,3.1288,3.1283,3.129,3.1273,3.1298,3.1266,3.1299,3.1274,3.1282,3.1281,3.1283,3.1284,3.1248,3.1303,3.1394,3.1403,3.1286,3.1285,3.1284,0,3.1236,3.1261,3.1292,3.1296,3.1297,3.1312,3.1313,3.1315,3.1324,3.1333,3.1339,3.1351,3.1357,3.1367,3.1354,3.1332,3.139,3.1357,3.1386,3.1387,3.1399,3.1398,3.1493,3.1405,3.1404,3.1404,3.1404,0,3.1306,3.1336,3.132,3.1339,3.1371,3.1355,3.1387,3.1385,3.1387,3.1405,3.1383,3.14,3.1383,3.1398,3.1388,3.1418,3.1421,3.1417,3.1414,3.1419,3.142,3.1424,3.1419,3.1407,3.1406,3.1406,3.1405,0,3.138,3.1371,3.1403,3.1401,3.1401,3.1425,3.1423,3.1441,3.1435,3.1458,3.1462,3.1453,3.147,3.1458,3.1475,3.1469,3.1507,3.1499,3.1506,3.1504,3.1534,3.1531,3.1634,3.1647,3.1551,3.1552,3.1553,0,3.1425,3.1447,3.1449,3.1459,3.1462,3.1479,3.1489,3.1474,3.1484,3.1491,3.1507,3.1523,3.1534,3.1563,3.1557,3.157,3.1562,3.1597,3.1563,3.1568,3.1562,3.1561,3.1563,3.1603,3.1605,3.1605,3.1606,0,3.1507,3.1502,3.1516,3.1529,3.1541,3.155,3.1558,3.1568,3.1553,3.1565,3.1583,3.1592,3.161,3.1626,3.1637,3.1637,3.1619,3.1617,3.1624,3.1629,3.1633,3.1632,3.1525,3.1614,3.1614,3.1613,3.1613,3.1612,3.1568,3.1587,3.1591,3.1607,3.1612,3.1619,3.1636,3.1632,3.1647,3.1661,3.1651,3.1672,3.1675,3.1688,3.1691,3.1707,3.1693,3.1704,3.1707,3.1709,3.1714,3.1631,3.1709,3.1709,3.1709,3.1708,3.1708,0,3.1649,3.165,3.1666,3.1678,3.1691,3.1674,3.1681,3.1693,3.1712,3.1717,3.1729,3.175,3.1765,3.1761,3.1775,3.1788,3.1781,3.1792,3.1791,3.1792,3.1726,3.1718,3.1799,3.1799,3.1799,3.1799,3.1798,3.1798,3.1692,3.1723,3.1718,3.1751,3.1751,3.1773,3.1778,3.1785,3.1789,3.1813,3.1826,3.1824,3.1825,3.1839,3.1852,3.185,3.1856,3.1871,3.1867,3.1805,3.1796,3.1788,3.178,3.1873,3.1873,3.1931,3.1931,3.1932]}]]